Find Starlink 30811

NORAD ID: 58167 Int'l Des: 2023-166 Owner: SPXS Country: US Constellation: starlink operational
LEOCIRCULAR

实时位置

正在加载3D地球...

关于 Starlink 30811

正在加载描述...

即将过境

Passes for default location (London). Set your location on the main map for personalized predictions.

高度历史

Loading altitude history...

两行轨道根数

1 58167U 23166T 26124.79771919 .00004378 00000-0 15283-3 0 9994
2 58167 53.1622 318.7191 0000552 36.9027 323.2012 15.31682339141625
Epoch: May 4, 2026 • Age: 6 hours

当前状态

高度 485.7 km
速度 7.62 km/s
星下点 -43.32°S, 53.9°W
发射日期 Oct 29, 2023
运行时间 2.5 years
类型 internet

技术详情

分类 Payload
质量 730.00 kg
干质量 700.00 kg
总质量 730.00 kg
长度 0.30 m
直径 4.10 m
跨度 29.00 m
形状 Box + pan
制造商 SPXS
平台类型 Starlink V2M
阶段状态 In Orbit
所有者/国家 SPXS/US

Most Searched